FW7658 Weather Reports


Display with metric or nautical units.
time (UTC)temp
F
wind
direction
speed
MPH
gust
MPH
rain 1hr
in
rain 24hr
in
rain mn
in
humidity
%
barometer
mb
20260506050115 60 0 0.0 0.0 0.00 0.00 0.00 85 1016.1
20260506044555 61 0 0.0 0.0 0.00 0.00 0.00 84 1016.2
20260506043059 62 0 0.0 0.0 0.00 0.00 0.00 83 1016.5
20260506041603 62 0 0.0 0.0 0.00 0.00 0.00 82 1016.6
20260506040055 62 0 0.0 0.0 0.00 0.00 0.00 81 1016.5
20260506034558 63 0 0.0 0.0 0.00 0.00 0.00 81 1016.5
20260506033055 63 0 0.0 0.0 0.00 0.00 0.00 80 1016.3
20260506031644 63 0 0.0 0.0 0.00 0.00 0.00 79 1016.3
20260506030059 64 0 0.0 0.0 0.00 0.00 0.00 79 1016.3
20260506023112 65 0 0.0 1.0 0.00 0.00 0.00 77 1016.5
20260506021554 65 0 0.0 0.0 0.00 0.00 0.00 77 1016.5
20260506020057 65 0 0.0 0.0 0.00 0.00 0.00 76 1016.5
20260506014554 66 0 0.0 3.0 0.00 0.00 0.00 74 1016.4
20260506013103 67 0 1.0 3.0 0.00 0.00 0.00 73 1016.1
20260506011604 67 162 0.0 3.0 0.00 0.00 0.00 72 1016.2
20260506010058 68 0 0.0 4.0 0.00 0.00 0.00 70 1016.3
20260506004559 68 152 0.0 8.0 0.00 0.00 0.00 70 1016.0
20260506003056 69 0 0.0 4.0 0.00 0.00 0.00 69 1016.1
20260506001600 69 0 0.0 6.0 0.00 0.00 0.00 68 1016.0
20260506000100 70 185 1.0 9.0 0.00 0.00 0.00 67 1016.2
20260505234553 71 169 1.0 10.0 0.00 0.00 0.00 66 1016.1
20260505233055 71 143 1.0 12.0 0.00 0.00 0.00 65 1015.8
20260505231553 73 318 2.0 9.0 0.00 0.00 0.00 64 1015.8
20260505230120 74 140 2.0 10.0 0.00 0.00 0.00 60 1015.7
20260505224555 74 140 5.0 10.0 0.00 0.00 0.00 60 1015.9
20260505223054 75 267 3.0 11.0 0.00 0.00 0.00 57 1015.7
20260505221603 76 170 4.0 12.0 0.00 0.00 0.00 57 1015.8
20260505220059 77 159 1.0 10.0 0.00 0.00 0.00 56 1015.7
20260505214553 78 174 2.0 8.0 0.00 0.00 0.00 54 1015.9
20260505213056 77 221 3.0 9.0 0.00 0.00 0.00 53 1015.9
20260505211603 78 207 3.0 11.0 0.00 0.00 0.00 54 1016.1
20260505210104 78 315 2.0 11.0 0.00 0.00 0.00 53 1015.9
20260505204603 80 210 2.0 10.0 0.00 0.00 0.00 51 1015.8
20260505203107 79 138 7.0 14.0 0.00 0.00 0.00 51 1015.6
20260505201555 79 178 3.0 12.0 0.00 0.00 0.00 53 1015.9
20260505200108 78 116 4.0 11.0 0.00 0.00 0.00 53 1015.9
20260505194554 80 136 2.0 11.0 0.00 0.00 0.00 51 1016.0
20260505193104 80 198 3.0 10.0 0.00 0.00 0.00 51 1016.3
20260505191607 80 237 2.0 11.0 0.00 0.00 0.00 54 1016.8
20260505190100 81 109 3.0 10.0 0.00 0.00 0.00 50 1017.1
20260505184559 79 0 3.0 10.0 0.00 0.00 0.00 51 1017.1
20260505183053 78 188 3.0 12.0 0.00 0.00 0.00 51 1016.9
20260505181559 80 147 3.0 10.0 0.00 0.00 0.00 51 1016.7
20260505180058 79 157 4.0 9.0 0.00 0.00 0.00 50 1017.0
20260505174607 79 153 3.0 11.0 0.00 0.00 0.00 53 1016.9
20260505173056 79 212 2.0 7.0 0.00 0.00 0.00 50 1016.8
20260505171557 78 195 2.0 9.0 0.00 0.00 0.00 51 1017.1
20260505170057 79 267 2.0 10.0 0.00 0.00 0.00 53 1017.2
20260505164600 79 0 1.0 8.0 0.00 0.00 0.00 53 1017.3
20260505163054 78 215 3.0 10.0 0.00 0.00 0.00 55 1017.6
20260505161554 78 140 4.0 10.0 0.00 0.00 0.00 54 1017.6
20260505153052 77 240 2.0 6.0 0.00 0.00 0.00 60 1017.9
20260505151556 76 149 2.0 8.0 0.00 0.00 0.00 61 1017.8
20260505150105 76 197 1.0 7.0 0.00 0.00 0.00 62 1017.8
20260505130110 68 163 1.0 3.0 0.00 0.00 0.00 76 1017.6
20260505124556 65 0 0.0 0.0 0.00 0.00 0.00 83 1017.6
20260505123102 63 0 0.0 0.0 0.00 0.00 0.00 89 1017.7
20260505121556 59 0 0.0 0.0 0.00 0.00 0.00 94 1017.6
20260505120104 57 0 0.0 0.0 0.00 0.00 0.00 95 1017.5
20260505114556 55 0 0.0 0.0 0.00 0.00 0.00 95 1017.4
20260505113112 54 0 0.0 0.0 0.00 0.00 0.00 95 1017.2
20260505111556 53 0 0.0 0.0 0.00 0.00 0.00 94 1017.2
20260505110116 52 0 0.0 0.0 0.00 0.00 0.00 94 1017.1
20260505101600 52 0 0.0 0.0 0.00 0.00 0.00 94 1016.5
20260505100053 53 0 0.0 0.0 0.00 0.00 0.00 94 1016.4
20260505094618 53 0 0.0 0.0 0.00 0.00 0.00 93 1016.4
20260505093058 53 0 0.0 0.0 0.00 0.00 0.00 93 1016.3
20260505091605 53 0 0.0 0.0 0.00 0.00 0.00 93 1016.2
20260505090105 53 0 0.0 0.0 0.00 0.00 0.00 93 1016.2
20260505084559 53 0 0.0 0.0 0.00 0.00 0.00 92 1016.1
20260505083105 53 0 0.0 0.0 0.00 0.00 0.00 92 1015.9
20260505081600 54 0 0.0 0.0 0.00 0.00 0.00 92 1015.8
20260505080053 54 0 0.0 0.0 0.00 0.00 0.00 91 1015.8
20260505074552 54 0 0.0 0.0 0.00 0.00 0.00 91 1015.7
20260505073058 54 0 0.0 0.0 0.00 0.00 0.00 91 1015.7
20260505071552 54 0 0.0 0.0 0.00 0.00 0.00 91 1015.7
20260505070051 54 0 0.0 0.0 0.00 0.00 0.00 90 1015.8
20260505064554 55 0 0.0 0.0 0.00 0.00 0.00 90 1015.8
20260505063052 55 0 0.0 0.0 0.00 0.00 0.00 89 1015.9
20260505061557 55 0 0.0 0.0 0.00 0.00 0.00 89 1016.1
20260505060105 55 0 0.0 0.0 0.00 0.00 0.00 88 1016.4